User: anonymous   Login
Location: Unspecified
(0.0000°N, 0.0000°E)
Time: 05:25:19
(UTC+00:00)
Language:

DNEPR OBJECT U - Orbit

View from above orbital plane
View from above orbital plane
View from above satellite
View from above satellite

Ground track
Ground track

The orbit data is extracted from the following two-line orbital elements,

1 39434U 13066U   18267.42927073 +.00001523 +00000-0 +11304-3 0  9990
2 39434 097.6118 341.6331 0033151 030.6130 329.7164 15.04124156264579
Epoch (UTC): 24 September 2018 10:18:08
Eccentricity: 0.0033151
inclination: 97.6118°
perigee height: 531 km
apogee height: 577 km
right ascension of ascending node: 341.6331°
argument of perigee: 30.6130°
revolutions per day: 15.04124156
mean anomaly at epoch: 329.7164°
orbit number at epoch: 26457

The dashed part of the orbit path shows where the satellite is in the earth's shadow,  

DLR